Location: ????????
(48.4751°N, 37.6926°E)
Time: 20:09:11
(UTC+00:00)

USA 229 - Pass Details

Date: 20 January 2021
Orbit: 964 x 1248 km, 63.4° (Epoch: 26 February)

Event Time Altitude Azimuth Distance (km) Brightness Sun altitude
Rises 17:53:01 0° 317° (NW) 3,960 7.3 -36.6°
Reaches altitude 10° 17:55:40 10° 314° (NW) 3,037 6.6 -37.0°
Enters shadow 18:01:56 56° 266° (W) 1,388 4.3 -38.0°
